GFSWCAN_con_lsi_021.txt.gz
Lid_Strength_Index
2 3 3 3 3 3 4 4 4 5 5 4 4 4 5 5 4 5 6 5 7 9 9 10 10 11 11 11 13 11 12 12 12 13 13 13 15 14 15 14 15 15 16 16 15 16 17 7 8 10 7 5 5 5
2 2 3 3 4 3 3 3 4 4 4 4 4 5 5 5 5 4 6 5 6 8 9 8 8 8 8 9 10 10 10 11 10 12 12 12 14 13 14 17 12 15 13 14 13 13 9 7 6 5 4 5 5 5
2 2 3 3 3 4 4 4 4 4 5 5 5 5 5 5 5 5 6 6 6 9 9 9 9 7 7 7 6 10 9 9 10 8 10 11 14 12 15 14 13 12 10 13 12 10 9 7 5 4 4 5 4 4
1 1 2 2 3 3 3 4 4 4 5 5 5 5 5 5 5 5 7 6 7 9 11 9 7 8 6 6 7 7 7 8 8 8 11 12 14 11 13 12 13 12 11 12 12 10 9 6 5 4 4 4 4 4
0 -0 0 1 2 3 3 3 4 4 4 4 5 5 5 6 5 5 5 5 6 9 11 10 8 7 6 7 7 7 8 8 10 12 12 13 11 12 11 11 12 10 11 13 13 8 8 6 5 5 5 5 5 5
1 0 0 -0 0 1 2 3 3 4 4 4 5 5 5 5 5 6 9 6 5 5 10 13 8 8 7 7 8 8 8 8 10 11 12 11 10 11 13 13 10 10 9 8 9 6 5 5 4 4 6 5 5 5
1 1 0 -0 -0 0 1 2 3 3 4 4 4 4 5 5 5 8 9 7 4 4 9 12 12 8 8 8 8 8 8 9 10 11 12 11 11 10 12 14 10 9 8 7 5 5 7 6 7 6 6 5 5 5
1 1 1 1 -0 0 1 1 2 2 3 3 4 4 5 4 5 7 4 5 4 6 9 14 13 12 8 10 10 8 10 10 11 11 10 11 10 11 14 11 9 8 8 7 6 5 6 6 6 7 6 6 7 7
1 1 1 1 1 0 0 0 1 1 1 2 3 3 4 6 8 7 4 4 4 7 13 13 14 13 9 9 9 9 9 13 9 12 11 10 12 14 11 10 9 8 9 9 7 7 7 8 8 8 8 7 8 8
1 1 0 1 1 1 0 -0 0 1 2 2 4 7 9 6 3 4 6 8 9 9 9 13 10 12 10 10 11 10 10 12 14 11 9 12 13 10 9 8 8 8 8 8 9 9 9 9 9 8 8 8 8 8
1 1 1 1 1 1 1 0 0 1 2 5 8 9 5 4 6 8 11 11 11 13 11 11 10 12 10 12 11 10 11 11 14 12 13 13 13 10 8 8 8 8 8 7 7 7 7 8 9 9 9 9 8 8
1 1 1 1 1 1 1 1 1 2 4 5 6 6 7 9 10 12 13 12 13 13 10 12 12 10 11 8 10 11 12 12 15 10 13 15 11 8 8 9 9 9 8 8 7 8 8 8 8 8 9 9 8 8
1 0 0 0 1 1 1 1 0 3 4 5 7 9 11 11 14 15 16 15 14 12 11 11 13 11 11 9 11 12 15 15 10 14 15 12 9 8 8 9 10 9 8 8 8 7 8 8 8 8 9 8 8 8
0 0 0 0 1 1 1 1 1 3 6 10 12 13 12 14 13 12 11 10 9 10 10 10 11 11 11 13 12 15 13 12 15 16 14 10 9 8 9 10 10 9 9 8 8 8 8 9 8 8 9 8 8 8
-0 -0 0 1 1 1 1 1 1 3 7 11 11 13 13 10 9 9 8 9 9 9 10 11 11 11 13 13 13 13 15 16 15 15 11 8 8 9 10 9 9 9 9 8 8 8 8 8 8 9 8 8 8 8
-0 -0 0 0 0 1 1 0 1 3 8 10 10 11 9 9 9 10 9 10 8 8 8 9 12 12 13 12 14 16 16 16 13 10 8 7 9 9 9 9 9 8 8 8 8 8 8 9 9 9 9 8 8 8
-0 2 -0 0 0 0 0 2 3 8 10 11 10 8 7 7 8 9 9 9 7 9 11 11 14 13 11 14 15 13 14 11 9 9 7 8 8 9 9 9 8 8 8 7 7 7 8 8 8 9 10 9 8 8
2 0 0 -0 -0 0 1 2 8 9 11 9 8 8 7 7 8 8 8 7 8 9 9 10 9 13 15 16 15 11 9 8 7 8 7 8 8 8 8 8 8 8 7 7 7 7 8 8 9 9 9 8 8 8
0 1 -0 -0 0 2 5 8 7 10 9 7 7 6 7 7 7 6 7 6 6 5 7 9 11 13 13 10 9 8 8 8 8 8 7 8 8 8 8 8 8 7 7 7 7 8 7 8 8 8 8 8 8 8
-0 -0 -0 -0 -0 6 8 8 8 7 8 6 6 7 8 8 7 7 7 7 6 7 9 11 11 9 8 7 7 7 7 7 7 8 9 8 8 8 8 8 8 7 7 7 7 7 8 8 8 8 8 8 9 9
0 1 0 0 6 7 7 8 8 8 8 8 7 8 9 7 8 8 9 7 9 9 10 8 7 6 5 6 6 6 7 7 7 7 8 8 8 8 8 8 7 7 7 7 7 8 8 9 8 8 8 8 8 8
1 -0 5 5 8 9 7 7 7 6 7 8 8 8 10 10 9 8 7 10 10 8 7 7 6 6 6 6 6 6 6 6 7 7 8 8 9 9 9 8 7 7 7 7 7 8 9 8 8 8 8 8 8 8
3 5 7 8 8 8 9 6 8 8 10 10 9 10 11 10 9 7 10 9 8 6 6 6 5 5 5 5 5 6 6 7 8 8 8 7 7 8 7 7 7 7 8 7 7 8 8 8 8 8 8 8 8 8
3 7 9 8 8 10 8 9 8 9 9 10 10 12 11 11 10 11 11 9 7 6 6 6 6 6 6 6 6 7 7 7 8 7 7 7 8 8 7 7 6 6 7 7 7 7 8 8 7 7 8 8 9 9
8 10 8 10 8 9 10 11 10 10 12 11 11 12 12 11 12 12 12 9 7 7 7 6 6 6 7 7 7 7 6 7 7 7 7 7 7 7 7 7 6 6 6 7 8 8 8 7 8 8 8 8 9 9
11 10 10 9 9 10 10 11 11 11 11 12 12 11 11 12 13 13 10 8 7 7 6 6 6 7 7 7 7 7 7 6 7 8 7 7 7 7 8 8 8 8 6 6 7 9 9 8 8 8 9 8 8 9
12 11 9 7 8 9 10 9 9 10 12 12 12 12 12 14 13 10 8 8 7 7 6 6 7 7 7 7 7 6 6 6 6 6 6 6 6 6 7 8 8 7 6 7 7 8 9 9 9 9 9 9 9 9
10 9 11 10 9 8 11 10 11 11 11 9 10 12 13 12 11 9 8 8 8 8 7 7 7 7 7 7 6 6 6 6 6 6 6 6 6 6 7 7 7 7 7 7 7 7 8 8 8 9 9 9 9 9
10 8 9 11 10 10 10 10 10 9 8 9 11 11 10 8 10 10 10 9 8 8 9 9 8 7 7 7 6 6 6 7 8 10 10 10 9 8 7 7 7 7 7 7 7 8 8 8 8 8 9 9 9 9
10 7 10 10 11 11 10 9 10 10 9 8 9 10 10 11 11 10 10 10 9 9 8 8 8 8 9 9 9 8 7 6 7 8 9 9 8 6 7 7 7 7 7 7 8 8 8 8 8 9 9 10 10 10
8 9 10 11 12 11 10 9 9 9 9 9 9 10 11 11 11 10 10 9 9 9 9 10 9 8 8 8 9 9 9 9 8 7 7 7 7 7 7 7 7 7 8 8 8 9 9 9 9 10 10 10 11 11
9 10 11 12 12 10 9 10 10 10 10 10 11 10 10 10 11 11 10 10 10 10 10 9 9 9 7 7 7 6 7 7 8 8 7 7 7 7 7 7 7 7 8 8 9 9 9 10 10 10 11 11 11 11
11 10 11 12 12 12 11 11 11 12 11 12 12 11 11 11 12 11 10 9 9 9 9 9 8 8 7 7 7 7 7 7 7 6 6 6 6 7 7 7 7 8 8 9 9 9 10 10 11 11 11 11 11 12

GFSWCAN_con_lsi_024.txt.gz
Lid_Strength_Index
2 2 3 3 3 3 4 3 3 4 4 5 5 4 4 4 3 4 6 5 7 9 8 9 9 10 11 11 13 12 13 13 13 14 14 14 15 14 15 14 15 16 17 17 16 18 19 10 11 13 10 9 7 6
1 1 2 2 3 3 3 4 4 5 4 4 4 4 5 4 4 4 6 5 6 8 9 7 8 8 9 9 11 11 11 11 11 12 12 12 14 14 15 18 12 17 14 15 15 15 11 9 10 8 7 7 7 6
1 0 0 1 2 2 3 3 4 4 4 5 5 5 5 5 5 5 6 6 7 9 9 9 10 8 7 8 7 11 10 9 10 9 11 11 14 13 16 15 14 12 11 13 13 12 11 10 9 8 6 6 5 5
1 1 1 -1 -1 0 1 2 2 3 3 4 5 5 5 6 5 5 7 6 7 9 13 10 8 9 7 7 7 7 8 7 8 9 11 12 14 12 14 13 14 12 11 13 13 11 10 10 9 8 7 6 5 5
1 1 1 -0 -1 -1 -0 0 1 1 2 3 4 4 5 5 6 6 6 5 6 10 13 12 9 8 8 7 7 7 8 8 10 11 12 13 12 12 12 12 13 11 13 14 14 11 11 10 8 7 7 6 6 7
2 1 1 0 -0 -0 -1 -0 -0 0 1 2 2 3 4 5 5 6 9 6 5 6 11 14 9 10 9 8 8 8 7 8 9 11 12 12 10 12 15 15 11 10 9 9 11 9 9 8 7 6 7 7 7 8
2 1 1 1 0 0 -0 -1 -1 -0 0 1 2 2 2 3 5 8 10 8 5 6 11 13 13 10 8 8 8 8 8 8 9 11 13 12 12 11 13 15 11 10 9 9 8 8 10 9 10 8 8 8 7 7
2 2 1 1 1 0 0 -0 -1 -1 0 0 1 2 3 3 4 7 5 5 4 7 9 14 14 12 9 11 11 8 9 10 11 12 11 12 11 12 14 11 10 9 9 9 9 9 10 9 9 8 8 8 9 9
2 2 1 1 1 0 0 0 -0 -1 -1 0 1 2 4 5 7 6 3 4 4 7 13 14 15 14 10 10 10 10 10 13 10 13 13 12 14 15 12 11 10 9 10 10 9 10 10 10 10 9 9 9 10 10
2 2 1 1 1 1 0 -0 -0 -0 -1 1 3 6 9 6 3 4 6 8 9 9 10 13 11 12 11 11 11 11 11 13 14 13 11 14 14 10 10 9 9 8 9 9 11 12 12 12 11 9 9 9 9 10
2 1 1 1 1 1 1 0 -0 -0 0 4 7 8 5 3 6 8 10 11 11 13 11 11 11 12 10 12 12 10 12 13 16 14 14 15 15 11 10 9 9 8 9 10 10 10 11 10 10 9 9 9 9 9
2 1 1 1 1 1 0 0 -0 1 2 4 5 5 6 8 10 12 13 11 12 14 11 12 11 10 10 9 11 11 13 13 17 12 15 17 13 10 9 9 9 9 9 9 10 10 10 9 8 9 9 9 9 9
1 1 1 1 1 0 0 0 0 0 2 4 7 9 10 11 14 14 16 14 13 11 10 11 12 11 11 10 11 12 15 16 12 15 16 14 10 9 9 9 9 10 9 10 10 10 10 9 8 8 9 9 9 9
-0 -0 -1 -0 -0 -0 -0 0 0 0 4 9 11 13 12 13 13 12 11 10 10 9 10 10 11 11 10 12 12 15 14 13 16 18 16 13 10 9 9 10 10 10 10 10 11 10 10 9 8 8 9 9 10 10
-1 -1 -0 -0 -1 -1 -1 -0 -0 1 5 10 10 12 12 9 8 8 8 7 8 8 10 11 11 11 12 13 12 13 15 18 16 16 12 10 9 9 10 10 10 10 10 11 10 10 9 8 8 9 9 9 9 9
-1 -0 0 -0 -0 -0 -0 -0 1 1 5 8 9 9 8 8 9 7 8 9 8 8 9 9 12 13 14 13 14 16 16 17 14 12 10 9 9 10 10 10 10 10 10 11 10 10 9 8 8 9 9 9 10 9
-0 2 -0 -0 -0 -0 -0 2 2 5 8 9 9 7 7 6 8 7 7 8 7 9 11 11 14 14 11 14 15 14 15 12 10 10 9 9 9 10 10 10 10 9 10 10 10 9 8 7 8 8 10 9 9 9
2 1 -0 -0 -0 1 2 2 5 9 10 8 8 7 6 5 6 6 6 7 8 9 9 11 9 12 14 16 15 12 10 9 9 9 9 9 9 9 9 10 9 9 10 10 9 9 8 8 8 9 9 9 9 10
0 0 -0 0 1 3 5 6 7 10 9 6 6 5 5 5 5 5 5 6 6 6 7 9 11 13 12 11 10 9 9 9 9 9 9 8 8 9 9 8 9 10 9 9 9 8 7 7 7 8 8 9 9 9
-1 -1 -0 -0 0 5 8 9 8 8 9 7 5 6 6 6 5 5 6 6 7 8 9 11 11 10 9 8 7 8 8 7 8 10 9 9 8 8 9 9 10 9 9 9 8 7 7 8 7 8 8 8 9 9
0 0 -0 0 3 6 7 9 9 8 6 7 6 6 8 6 7 7 7 6 9 10 11 9 8 7 7 6 6 7 7 7 8 8 9 9 8 8 9 9 9 9 9 9 8 8 7 8 8 8 8 9 9 10
2 -0 3 4 8 9 9 7 7 7 7 7 7 6 8 8 8 8 7 9 10 9 8 8 7 7 7 7 7 7 7 7 7 7 6 7 9 9 10 9 10 9 9 8 8 8 8 7 7 8 8 8 9 10
2 4 7 8 9 9 10 7 8 8 9 9 7 9 9 8 7 5 9 9 9 7 7 7 7 6 6 6 6 6 6 7 8 7 8 8 8 8 9 9 8 9 9 7 7 7 8 7 7 8 8 9 10 10
3 7 8 9 8 10 9 9 8 8 8 9 9 10 9 8 7 9 10 9 8 7 7 7 7 7 7 7 7 6 6 6 7 7 7 8 9 9 9 8 8 7 7 7 7 7 7 7 7 8 8 8 9 9
9 10 9 10 8 10 10 10 10 10 11 10 10 10 10 9 11 11 11 10 9 8 8 7 7 7 8 7 7 7 6 6 8 8 7 7 8 8 8 8 7 6 6 7 8 8 8 8 8 8 8 9 9 9
11 10 10 10 10 10 10 12 11 11 11 11 10 10 9 11 12 12 11 9 9 8 7 7 8 8 7 7 7 8 7 6 7 8 8 7 8 8 9 9 8 8 6 7 7 8 8 8 9 9 9 9 8 10
12 11 9 7 8 8 9 9 9 10 11 11 11 11 11 13 13 11 8 8 8 8 7 6 7 7 8 8 7 6 6 6 7 7 6 7 7 7 8 8 8 7 6 7 7 7 8 9 9 9 9 9 10 11
10 9 11 10 9 8 10 10 10 11 10 9 10 12 12 12 11 9 9 9 9 8 8 8 7 7 7 7 7 7 7 7 7 7 7 7 7 7 7 7 6 5 7 7 7 7 8 8 9 10 10 11 11 11
10 8 9 12 10 10 10 10 10 9 8 9 11 11 10 9 9 9 10 10 9 9 10 9 8 7 7 7 7 7 7 8 9 10 10 10 10 9 7 7 7 7 8 8 6 7 8 9 10 10 10 11 11 11
9 8 9 10 11 11 10 10 9 9 8 8 9 9 10 11 11 10 10 10 10 10 9 8 8 8 9 9 9 9 8 8 8 9 10 10 10 8 8 7 7 7 7 9 10 9 7 8 9 10 10 11 11 11
8 8 10 10 11 11 10 9 8 8 9 9 9 10 11 12 11 10 10 10 10 8 9 10 9 8 9 9 10 10 10 8 8 8 7 7 7 7 7 7 7 7 8 9 10 10 10 10 11 11 11 11 11 11
8 10 11 12 12 10 8 9 9 10 10 10 11 11 11 11 12 12 11 11 11 11 10 10 11 11 9 9 8 8 7 9 9 8 8 8 7 7 7 7 7 7 9 9 10 10 10 11 11 11 11 11 11 11
10 10 10 11 11 11 10 10 11 12 12 12 12 12 12 12 13 12 11 11 11 11 11 10 10 9 9 8 8 8 7 9 8 6 6 6 6 6 7 7 7 7 8 8 9 9 10 11 11 11 11 11 12 12

GFSWCAN_con_lsi_030.txt.gz
Lid_Strength_Index
2 3 3 2 1 1 2 2 2 3 3 4 4 4 4 4 4 7 9 8 11 13 12 11 10 13 14 15 16 15 15 16 17 19 20 20 21 19 20 18 18 19 21 22 21 24 23 13 14 16 15 13 11 11
2 2 2 2 2 1 -1 0 1 2 3 3 4 5 5 5 5 6 10 8 8 12 13 9 9 10 11 12 14 15 16 16 16 18 19 21 20 21 19 21 17 19 17 19 18 19 14 13 13 12 11 11 11 11
2 2 2 2 1 1 1 -0 -1 -0 0 1 2 3 3 3 3 5 9 9 11 13 13 12 12 9 10 10 10 14 15 14 14 14 16 19 21 19 21 20 19 15 14 17 17 15 14 13 12 11 10 10 10 10
2 2 2 2 2 1 1 1 -0 -1 -1 -0 1 1 2 2 3 4 7 7 9 10 13 11 8 10 9 9 9 10 11 11 12 14 16 19 20 16 20 17 18 15 15 16 17 15 14 13 13 11 10 10 11 11
2 2 2 2 2 2 2 1 1 0 -1 -1 -0 0 1 1 2 5 7 6 6 10 13 12 9 8 8 9 9 9 10 12 13 15 16 18 17 16 17 17 19 13 14 17 16 14 14 14 12 10 11 12 12 12
2 3 3 3 2 2 2 1 1 1 0 -0 -1 -0 0 1 2 5 7 6 5 7 11 16 10 10 9 9 9 9 10 11 12 13 14 14 13 14 19 21 14 12 12 12 14 13 13 12 10 12 13 12 11 11
3 3 3 3 3 3 2 1 1 1 1 0 -0 -0 0 1 3 6 7 6 3 5 9 14 15 11 9 9 10 11 10 11 11 12 14 14 14 13 19 18 13 12 12 12 12 13 14 12 14 13 12 11 10 11
3 3 3 3 3 3 3 2 1 1 1 1 0 0 1 1 3 6 5 3 4 6 8 13 15 14 10 12 13 10 12 11 10 12 13 13 13 13 16 13 12 12 12 12 12 12 12 13 13 13 12 12 12 12
3 3 3 3 3 3 3 3 2 1 1 1 1 1 2 4 6 6 3 2 4 7 12 13 14 18 11 12 12 11 12 16 12 15 13 13 16 16 13 12 12 12 12 12 12 12 13 13 14 14 14 13 13 11
3 3 3 3 3 3 3 3 2 2 2 2 3 5 8 6 2 3 5 7 8 8 8 12 12 16 12 14 16 14 15 17 15 14 13 14 15 12 10 11 10 11 11 11 13 14 14 15 14 14 14 12 11 11
3 3 3 3 3 3 2 2 2 2 3 6 6 7 5 2 5 7 10 10 10 12 10 10 10 13 11 12 11 11 14 13 17 16 15 17 17 13 11 11 10 10 11 11 11 13 13 13 13 13 12 12 11 10
3 3 3 3 2 2 2 2 2 4 6 6 6 5 5 7 9 11 12 11 12 13 11 10 10 9 9 8 10 10 12 13 18 14 17 18 15 12 12 11 11 11 11 12 12 12 13 12 13 13 12 11 10 10
3 3 3 2 2 2 2 1 1 2 3 5 7 9 10 11 14 14 16 14 13 11 9 9 11 9 9 8 9 11 13 15 14 16 17 16 12 12 12 12 12 12 12 12 12 12 12 12 11 11 11 10 10 10
2 2 2 2 2 1 1 1 1 2 4 8 10 14 14 14 13 12 13 12 10 10 9 9 11 10 9 10 10 12 12 14 19 20 18 14 11 12 11 11 12 12 12 12 12 12 12 12 12 11 10 10 10 10
2 2 2 2 1 1 1 0 0 1 4 9 10 14 15 12 11 11 11 10 9 8 8 9 10 10 11 11 11 12 14 18 18 18 14 11 12 12 11 11 12 12 12 12 12 12 12 12 12 11 10 10 10 10
2 2 3 1 1 1 0 -0 1 2 4 8 10 12 11 12 11 11 11 11 8 7 8 8 10 11 12 12 13 15 17 18 16 13 10 10 12 12 11 10 11 12 12 12 12 12 12 12 11 10 9 9 10 10
1 4 2 1 0 -0 -0 2 3 6 9 9 11 9 10 10 10 10 9 9 6 7 9 9 12 13 10 13 16 15 16 14 11 10 9 10 11 11 11 11 11 11 12 12 12 12 11 11 10 9 10 9 9 9
3 2 0 -0 0 1 2 2 5 9 10 9 11 9 9 7 8 9 8 7 7 8 9 11 8 11 12 15 15 12 12 10 9 9 9 10 10 10 10 11 11 11 12 12 12 11 11 11 10 10 9 9 9 9
1 1 -0 -0 1 3 6 5 7 10 9 11 11 9 8 8 7 7 6 6 6 6 7 8 10 11 11 11 12 11 10 9 9 9 9 10 10 10 10 11 11 12 12 12 12 11 11 10 9 9 9 9 10 9
0 0 0 0 0 4 7 8 7 8 10 9 9 10 8 8 7 7 6 6 6 6 8 9 9 8 9 6 6 6 7 7 8 10 10 10 10 11 11 10 10 11 11 12 11 9 10 9 8 8 9 9 9 9
0 1 -0 0 2 4 7 9 9 8 8 10 9 8 9 8 8 8 8 5 7 8 9 7 7 6 4 4 6 6 7 7 7 8 9 10 10 10 11 11 11 11 11 11 11 11 9 10 9 9 9 9 8 8
2 -0 2 2 8 9 8 8 8 8 8 8 9 9 10 10 9 9 7 7 8 7 6 6 5 5 5 5 5 5 5 6 7 7 6 8 12 12 12 10 11 11 11 10 10 10 11 10 9 9 9 8 7 8
2 4 8 8 9 9 10 7 9 8 10 10 8 10 9 9 9 6 8 8 7 5 4 4 4 4 5 4 4 5 5 6 7 8 7 9 10 9 10 10 9 10 11 11 10 10 10 8 8 8 8 8 8 8
4 8 9 10 9 11 9 10 8 9 9 9 9 10 10 9 7 9 10 10 7 5 5 5 5 5 5 6 7 6 6 6 7 7 8 9 10 10 9 9 9 9 9 9 9 10 10 8 7 8 8 8 8 8
9 11 10 11 10 11 12 11 10 10 11 10 12 12 10 8 10 10 11 10 9 8 6 6 6 6 6 6 6 6 5 6 7 8 8 8 9 10 10 10 10 9 9 10 10 9 9 8 8 8 8 8 8 8
12 11 11 12 12 12 12 12 12 12 11 11 11 11 11 11 12 14 12 11 11 10 10 9 8 8 7 6 7 8 7 6 7 7 8 8 8 8 10 11 11 11 9 8 9 9 8 8 8 8 8 8 7 8
13 12 10 9 10 11 12 11 11 11 12 12 11 11 12 14 15 12 11 10 12 10 8 7 7 7 7 6 7 7 7 7 7 8 8 8 7 7 7 9 9 8 8 8 8 8 8 8 8 8 8 8 8 9
11 11 12 11 11 11 12 11 11 12 12 11 11 13 13 13 14 11 10 10 11 11 11 10 8 8 8 8 8 9 9 8 8 8 8 8 8 7 7 7 7 6 7 7 7 7 7 8 8 8 9 9 9 10
11 10 10 15 13 12 13 12 12 11 10 11 12 12 12 11 12 12 11 10 9 9 11 11 11 9 9 10 10 10 9 9 10 10 10 11 11 11 8 7 7 7 7 7 5 6 7 8 8 8 8 9 10 11
12 10 11 12 15 14 12 11 11 11 11 11 10 11 11 12 12 11 13 12 13 13 13 12 11 10 11 10 10 9 8 8 8 9 10 10 9 9 9 9 9 8 7 7 7 7 6 7 7 8 9 10 11 11
10 11 12 12 13 12 12 11 11 11 11 11 11 11 12 12 12 12 13 11 9 9 9 9 9 9 9 9 9 10 11 9 8 8 8 8 8 9 9 9 8 8 8 9 9 9 9 9 9 10 11 11 11 10
10 11 13 13 12 10 10 11 11 11 11 12 12 12 12 12 13 12 12 12 10 10 9 9 10 10 9 9 9 9 8 9 9 8 8 8 10 9 8 8 8 8 9 9 9 9 10 10 11 11 11 11 11 11
11 11 12 11 12 11 10 12 12 12 12 12 12 12 12 12 13 13 12 12 12 12 12 11 11 10 11 10 10 10 8 10 9 7 7 7 7 7 7 8 8 8 9 10 10 10 10 10 11 10 10 11 11 11

GFSWCAN_con_lsi_036.txt.gz
Lid_Strength_Index
4 4 4 4 4 3 2 2 2 2 2 2 3 4 4 4 4 8 10 9 12 14 13 12 12 15 15 15 16 16 16 17 18 19 20 20 21 18 20 19 19 20 21 22 22 25 23 15 16 18 16 16 14 14
3 3 2 2 2 2 2 1 1 0 1 1 1 2 3 3 3 6 10 7 8 11 10 9 9 9 10 11 13 14 14 15 14 16 17 18 18 19 18 20 18 19 17 19 19 19 15 13 14 14 14 14 14 13
3 3 3 3 2 2 2 2 2 1 0 0 1 1 2 2 3 5 8 8 9 10 10 10 10 9 7 8 9 12 13 12 13 13 15 17 19 17 19 18 18 16 15 17 17 15 13 12 12 13 12 13 12 12
3 3 3 3 3 3 2 2 2 2 1 1 -0 0 1 2 3 5 8 8 9 11 13 10 8 9 8 9 9 9 10 10 11 12 14 18 18 14 17 16 17 14 14 15 16 13 13 12 13 13 12 12 12 13
3 3 3 3 3 3 3 2 2 2 2 2 1 1 0 1 2 6 8 8 8 9 13 12 10 9 9 9 9 9 10 11 12 14 16 16 15 15 16 17 19 14 15 16 14 11 13 14 13 12 12 12 13 13
3 3 3 3 3 3 3 3 3 2 2 2 2 1 1 1 3 7 10 8 6 8 11 14 11 11 10 10 10 10 10 11 12 13 15 14 13 14 21 20 15 13 11 10 11 13 13 13 13 12 12 13 12 13
4 4 3 3 3 3 3 3 3 2 2 2 2 1 2 1 5 8 9 8 5 7 11 15 16 12 11 11 11 11 10 12 12 13 15 15 14 13 21 22 12 13 11 10 10 13 14 13 13 12 12 12 11 12
5 4 3 3 3 3 3 3 3 3 3 2 2 2 2 2 3 5 6 4 5 8 10 15 16 14 12 13 13 12 13 13 13 13 13 14 14 15 19 15 11 10 10 11 11 11 11 12 13 13 12 13 13 14
5 4 4 3 3 3 3 3 3 3 3 3 2 2 4 5 7 8 4 3 5 8 16 13 15 17 12 14 14 13 13 15 13 15 13 13 14 17 14 11 10 9 11 11 11 12 13 13 13 13 13 14 14 14
4 4 3 3 3 2 2 3 3 3 3 3 7 9 10 6 4 5 8 9 9 8 9 12 12 16 13 16 15 15 13 15 15 13 12 13 14 10 9 9 8 9 10 10 12 13 14 15 14 14 14 13 13 13
4 4 4 3 3 3 2 2 2 3 4 8 10 10 6 4 7 8 11 12 12 13 11 10 10 13 12 12 12 11 13 14 15 15 13 14 15 10 9 9 7 8 9 9 9 10 11 12 13 14 14 13 13 13
4 3 3 3 3 3 3 3 3 6 8 8 9 6 6 10 11 12 14 12 13 13 10 10 10 11 10 9 11 10 11 13 16 14 13 15 12 10 10 9 10 10 10 11 11 11 12 12 12 13 13 13 13 12
4 3 3 3 3 3 3 3 3 5 6 8 10 11 12 12 16 16 17 15 13 10 11 10 12 12 10 10 10 9 11 14 12 14 15 13 11 9 9 9 9 10 10 10 11 11 12 12 12 12 12 12 12 12
3 3 3 2 2 2 2 2 2 4 6 11 12 15 15 16 14 15 15 14 11 12 12 11 12 11 9 10 9 12 10 12 16 16 16 13 11 10 7 8 9 9 10 10 11 11 12 12 12 12 12 12 12 12
3 3 3 3 2 2 2 2 2 4 7 11 12 15 15 14 15 14 12 12 12 10 10 10 9 8 10 10 10 11 13 18 16 16 13 10 9 7 6 6 7 8 10 11 11 12 12 12 12 12 12 12 11 11
3 3 4 3 2 2 2 3 4 5 8 11 12 14 14 16 15 14 13 12 10 10 11 10 11 11 11 12 12 13 15 18 15 13 10 8 8 7 7 6 6 9 11 11 11 11 12 12 12 12 12 12 11 11
3 6 3 2 2 2 3 5 6 9 10 13 14 11 13 14 13 13 11 11 9 10 13 11 12 13 13 12 13 14 15 13 10 10 9 7 8 7 7 7 7 8 10 12 12 11 11 11 12 12 13 12 11 10
6 5 2 2 3 4 5 5 7 10 11 11 13 13 11 10 10 12 10 10 9 10 9 10 9 11 12 16 15 10 10 8 8 8 8 8 8 7 6 7 7 6 9 11 11 11 11 12 12 12 12 12 11 10
5 5 3 2 3 5 8 8 7 11 11 12 12 12 11 11 9 7 8 8 7 7 7 8 10 12 11 8 8 7 7 7 7 7 7 8 8 7 7 7 8 8 11 11 12 11 11 11 11 11 11 12 12 11
3 3 3 2 3 6 9 10 8 9 11 11 11 12 11 10 8 8 8 7 7 7 8 9 9 8 7 7 6 6 6 6 7 8 7 8 7 7 7 8 9 8 10 11 11 9 11 11 11 11 11 11 11 11
4 4 2 2 4 5 8 9 10 9 9 11 11 10 11 11 10 10 9 6 8 8 9 7 7 6 5 5 4 4 5 5 7 7 7 7 6 8 8 8 9 9 10 11 11 11 9 10 10 10 10 10 10 9
4 2 4 3 8 7 9 8 8 8 8 9 10 11 11 12 11 10 7 8 8 7 7 6 6 5 5 5 5 5 5 5 5 6 4 4 6 8 9 8 9 10 10 10 10 10 9 10 10 10 10 10 8 9
2 2 6 7 7 9 11 8 10 9 10 10 10 12 12 11 10 8 10 9 8 6 5 5 5 5 5 4 5 5 6 6 6 6 6 6 6 5 5 7 7 8 9 9 9 9 9 8 8 10 10 9 10 9
2 7 9 9 9 10 10 11 8 9 9 10 10 13 11 11 10 10 11 11 7 7 7 6 5 6 5 6 7 6 5 6 6 6 6 6 6 6 6 6 6 7 6 8 9 9 9 9 8 9 10 10 10 9
8 10 9 11 9 11 12 11 10 10 11 10 11 12 11 9 10 10 11 10 9 8 6 8 8 8 8 7 7 7 6 6 6 7 6 7 6 6 7 8 8 7 7 8 9 9 10 10 9 9 10 10 10 9
10 10 11 12 12 12 12 13 12 11 11 11 10 10 9 10 11 13 12 10 10 10 12 12 12 12 11 9 9 9 8 7 7 8 7 7 7 7 7 8 9 8 7 7 8 9 10 9 9 10 10 9 8 9
10 11 9 8 9 10 11 11 10 10 11 12 12 11 12 13 14 12 11 11 10 12 11 12 11 10 11 9 8 7 7 6 6 5 5 5 5 5 5 6 7 7 7 8 8 9 9 10 10 10 10 9 9 8
9 9 11 10 11 10 12 11 11 11 11 11 11 13 14 14 13 11 11 11 12 9 11 11 9 9 10 9 9 9 8 8 8 7 8 8 8 8 7 6 6 6 7 8 8 8 9 9 9 10 9 9 9 9
11 10 10 13 12 12 13 11 11 10 10 10 11 12 12 11 12 13 12 12 13 13 13 13 12 10 10 9 9 9 9 9 10 12 11 10 10 9 8 7 7 8 8 8 6 7 8 8 8 8 8 9 9 9
13 10 11 11 12 12 12 11 11 11 10 10 11 11 11 12 14 14 14 13 13 14 13 13 13 11 12 10 9 10 8 8 8 8 10 10 9 8 8 8 8 8 8 7 8 7 5 6 6 8 9 10 10 10
11 11 12 12 13 12 12 12 11 11 11 11 11 11 11 12 12 13 14 15 15 10 8 9 9 9 9 9 9 9 10 9 8 8 8 8 8 8 8 8 8 7 8 8 8 7 7 9 9 10 10 10 10 10
11 12 12 13 12 11 11 11 11 11 12 12 12 12 12 12 12 12 12 13 11 9 8 9 9 10 9 9 9 8 8 9 9 9 8 8 8 8 8 8 8 8 8 8 8 8 8 9 9 9 10 10 10 11
11 12 12 12 12 12 11 12 12 13 12 13 12 12 12 12 12 12 12 13 12 11 10 10 10 9 10 10 11 11 10 11 8 6 6 6 7 8 9 9 9 9 9 9 9 9 9 10 10 11 11 11 11 11